Wind_Speed
10 10 10 11 11 11 10 10 10 10 10 10 10 10 11 11 11 11 11 11 10 10 10 10 9 10 10 10 10 11 12 12 12 12 13 14 14 14 15 15 15 15 14 14 13 13 11 8 6 7 7 6 6 5 5 6 6 7 8 9 9 10 10 11 12 12 13 13 13 13 13 15 15 15 17 19 20 20 20 20 20 20 19 18 17 16 15 15
11 11 11 11 12 12 12 12 11 11 11 11 11 11 11 11 11 11 11 11 10 10 10 9 9 9 9 10 10 10 10 10 9 9 11 12 12 13 14 14 15 15 15 15 15 15 14 12 10 9 8 7 7 6 6 6 6 7 8 10 10 11 12 12 13 14 15 14 14 14 15 16 16 17 18 20 20 21 22 21 21 21 20 19 17 17 16 15
12 12 12 12 12 13 13 13 13 13 12 12 11 11 11 11 11 11 11 11 11 10 10 9 9 9 9 9 10 10 9 10 8 8 10 10 10 11 11 12 13 13 13 13 13 13 13 13 12 12 10 9 8 8 7 7 7 8 9 10 10 11 12 13 14 14 15 14 15 15 16 17 17 19 21 21 22 23 22 20 21 21 19 19 18 17 17 17
12 12 12 12 12 13 13 14 14 14 14 13 12 11 10 10 11 10 10 11 10 10 10 10 9 9 9 9 10 10 10 10 8 8 10 9 9 10 10 10 11 12 12 12 12 12 12 11 11 11 10 10 10 9 8 8 8 8 9 10 11 11 12 13 13 13 14 15 16 17 18 19 19 22 22 23 25 23 20 19 21 20 19 19 18 18 18 18
12 12 12 12 12 12 13 13 14 14 14 13 12 12 11 10 10 10 10 10 10 10 10 10 10 10 9 10 10 10 11 10 8 9 10 9 10 10 10 10 10 11 11 12 11 11 11 11 11 11 10 9 10 10 9 9 9 10 10 10 11 11 11 12 12 13 14 15 17 18 20 20 21 23 23 25 25 21 18 19 20 20 19 19 19 18 19 20
13 12 12 12 12 12 12 13 13 14 14 13 12 12 11 10 10 11 11 10 10 10 10 10 10 10 10 10 10 10 10 10 10 10 10 10 11 11 11 11 11 11 12 12 12 12 11 11 12 12 11 11 10 9 10 10 10 11 11 10 11 11 11 11 13 14 15 15 16 18 20 20 22 23 24 24 21 20 20 19 19 20 19 19 19 19 20 21
13 13 13 13 13 13 13 13 13 14 14 13 13 12 12 11 11 11 11 11 10 11 11 11 11 11 10 10 10 9 10 10 11 10 10 11 12 12 12 12 12 12 12 13 13 13 13 12 13 12 12 12 11 10 10 10 11 12 11 11 11 11 11 11 12 13 15 16 16 18 19 20 21 22 22 18 14 17 20 18 18 19 19 20 20 20 21 22
14 14 14 14 14 14 14 14 14 14 14 14 13 13 12 12 12 11 11 11 11 11 11 11 11 11 10 10 9 9 9 9 10 10 10 11 12 13 13 13 13 12 13 14 14 14 14 13 13 14 13 13 13 12 12 11 12 11 11 11 12 12 12 13 13 14 16 16 17 18 18 19 20 21 18 12 11 16 17 17 18 19 20 21 22 22 23 24
16 15 15 15 15 15 15 15 14 15 15 15 14 14 13 13 13 12 12 11 11 11 11 11 11 11 11 10 9 9 8 8 9 10 10 11 12 13 14 14 13 13 14 15 15 15 15 15 14 15 15 14 14 13 13 14 13 12 12 13 14 14 14 14 14 15 17 17 19 19 19 19 20 20 14 9 13 17 17 18 18 20 21 22 23 23 24 25
17 17 16 16 16 16 16 16 16 15 16 16 16 15 14 14 14 13 13 12 11 11 11 11 11 11 10 10 9 8 8 9 10 10 11 13 13 14 14 14 13 13 15 16 17 16 16 16 15 15 16 15 14 14 15 15 14 13 14 15 16 16 16 17 17 17 18 18 20 21 21 21 21 21 14 12 17 18 18 19 19 20 21 22 23 23 24 25
18 17 17 17 17 17 16 16 16 16 17 17 17 17 15 14 14 14 14 14 13 12 12 12 11 11 10 10 9 9 10 10 11 12 14 14 13 13 13 13 13 14 17 18 18 18 18 18 17 16 16 16 15 16 16 15 15 15 16 17 17 17 17 18 18 19 20 19 20 23 25 25 23 20 15 16 19 19 20 20 20 22 22 24 25 25 26 25
18 18 18 18 18 18 17 17 17 17 18 18 18 19 17 16 15 15 15 15 14 14 13 13 12 12 11 10 10 11 11 11 12 13 15 14 13 13 12 12 14 17 18 19 20 21 20 20 19 17 17 17 17 17 16 16 17 18 19 19 19 19 19 18 19 20 20 20 21 24 28 29 23 18 16 19 20 21 22 21 22 23 24 26 27 28 28 27
19 19 19 19 19 19 19 18 18 18 19 19 19 20 20 18 17 16 16 15 15 15 15 15 14 14 14 13 12 13 13 12 13 13 14 13 13 13 13 15 18 20 20 20 22 22 22 22 21 20 19 18 18 17 17 18 19 19 20 21 21 22 21 18 17 19 20 21 23 23 28 31 24 19 19 20 21 23 24 24 24 24 25 26 27 29 29 29
20 20 20 19 20 20 20 19 19 20 20 21 21 21 22 21 19 18 17 16 16 16 16 16 16 16 16 14 14 14 14 13 13 13 12 12 13 14 16 19 20 21 22 22 23 24 25 24 23 23 21 20 19 19 19 19 20 20 21 22 22 22 22 21 19 21 22 23 25 22 28 34 26 21 22 21 23 25 26 26 26 26 27 27 28 29 30 30
21 20 20 20 20 20 21 21 21 21 21 22 22 23 24 23 22 21 20 18 18 17 17 17 18 18 18 17 16 16 15 14 14 13 12 12 15 17 18 19 21 22 24 25 26 26 26 25 25 24 23 22 21 21 20 20 21 20 20 21 21 22 24 25 24 24 24 23 25 23 28 35 29 24 25 23 25 27 29 28 28 28 28 29 29 29 30 30
22 21 21 21 21 21 21 21 22 22 22 22 23 24 25 25 25 24 23 22 20 19 19 19 18 19 19 18 17 16 16 15 15 13 14 16 17 17 18 20 22 23 25 26 27 28 28 27 26 25 25 24 22 22 21 22 22 20 19 20 23 25 26 28 27 27 26 25 27 27 31 37 31 26 28 27 28 29 29 30 29 30 31 30 29 28 29 30
24 23 23 22 22 22 22 22 22 22 23 23 24 24 26 27 27 27 26 25 24 23 22 22 21 21 21 20 20 19 18 16 15 16 17 18 18 19 20 21 22 23 25 27 28 29 29 28 27 27 26 25 24 23 22 23 22 20 21 22 25 27 29 30 30 29 28 27 30 32 35 40 35 30 30 31 30 30 31 31 31 32 32 30 28 27 28 28
26 25 25 24 24 23 23 23 22 23 23 24 25 25 26 28 29 29 29 28 28 27 26 25 24 23 22 20 19 17 17 17 17 19 20 20 21 22 22 22 23 25 27 29 30 30 29 29 29 28 27 27 26 24 23 23 23 23 23 24 27 29 31 31 31 30 30 31 33 35 39 42 39 34 32 31 32 34 33 31 33 33 30 27 25 25 27 28
28 27 27 26 25 25 25 25 24 24 24 24 25 25 26 28 29 30 31 30 30 29 28 27 26 25 23 20 18 17 18 19 21 21 22 22 23 23 22 24 26 26 28 30 31 31 30 30 29 30 30 26 24 23 25 26 26 26 25 26 29 32 33 32 32 31 32 35 36 37 40 41 41 38 33 32 35 36 33 33 33 29 24 23 24 25 27 27
29 29 28 27 27 27 27 26 26 25 26 26 26 26 27 28 29 30 31 31 32 31 30 30 30 29 28 26 24 23 23 23 23 23 24 24 24 24 25 26 27 27 28 30 31 31 30 29 29 31 27 22 22 23 26 27 28 27 27 28 30 34 35 31 31 33 33 37 39 38 39 42 43 41 37 35 37 36 35 35 28 22 22 23 24 24 25 25
30 29 28 28 28 28 28 28 28 27 27 28 27 27 28 28 30 31 31 32 32 32 32 32 33 33 32 30 28 28 27 27 27 26 26 26 26 27 28 28 28 29 29 30 31 31 30 29 28 26 24 21 23 25 26 28 29 29 28 29 32 34 35 32 31 33 33 36 40 40 42 47 45 43 41 38 41 38 31 28 23 21 23 23 23 23 24 25
30 29 28 28 29 29 29 29 28 28 29 29 29 29 29 30 30 32 33 35 34 32 33 33 34 35 33 32 31 31 31 31 31 29 28 29 29 29 30 30 31 31 30 31 31 30 29 28 24 22 23 22 23 25 27 29 30 29 28 30 33 34 35 33 31 32 33 36 41 42 46 52 48 46 44 38 37 27 16 20 24 23 22 22 23 24 25 23
32 31 30 30 30 30 30 30 29 29 28 29 30 30 31 31 32 33 34 38 38 34 33 34 35 34 33 33 33 33 35 35 34 32 32 32 32 32 33 32 32 31 30 31 30 29 27 25 22 22 23 22 22 24 25 28 30 30 30 32 33 33 32 32 32 32 34 36 41 43 49 58 51 44 38 27 23 16 12 22 23 19 20 23 24 22 21 20
34 33 32 33 32 32 33 32 31 30 30 30 30 30 32 33 33 34 36 40 43 39 36 35 34 34 33 34 34 34 36 36 35 34 33 34 34 34 34 32 31 30 28 28 29 29 27 24 25 25 26 26 25 25 27 30 33 33 33 33 34 32 29 32 33 32 34 36 38 39 48 55 38 23 20 16 21 25 24 24 16 14 20 22 21 17 17 21
33 33 33 33 33 33 33 33 32 32 31 31 31 32 33 33 34 35 36 41 45 43 39 38 36 33 33 33 33 34 36 36 35 34 33 33 33 33 32 29 29 28 25 26 28 29 27 25 27 28 28 29 29 29 29 32 35 35 33 32 32 30 29 32 32 32 33 29 28 28 30 32 17 4 13 22 30 34 29 23 15 13 17 18 17 15 19 23
32 32 32 32 33 32 33 33 32 31 31 31 31 32 32 34 34 34 36 39 44 43 38 36 33 31 31 31 30 31 34 34 32 30 30 29 29 29 29 27 27 26 24 26 28 29 28 27 29 29 28 28 29 30 30 32 35 34 33 32 30 30 31 31 31 31 27 21 25 25 18 24 25 20 29 37 36 30 25 24 19 13 15 16 16 17 23 22
31 31 31 31 31 32 33 33 31 31 31 30 31 31 31 33 33 34 32 29 30 30 26 25 26 26 27 25 24 25 26 26 24 22 22 22 24 25 27 27 26 26 26 27 26 27 28 28 28 28 28 29 29 30 30 30 31 32 33 31 29 32 32 32 33 30 30 32 31 30 25 30 37 35 36 38 30 26 25 21 17 18 19 15 17 22 25 19
33 33 33 32 32 32 32 32 31 31 31 32 32 31 31 31 32 32 25 13 10 12 11 12 16 17 18 18 18 20 21 22 21 20 20 22 24 25 27 27 26 28 28 29 30 29 31 31 30 29 29 29 30 30 29 28 29 32 33 31 30 33 32 33 33 29 35 33 25 31 29 22 31 36 32 32 28 25 25 17 18 26 21 15 19 27 23 19
36 35 35 34 34 34 33 32 32 31 31 32 32 31 32 32 31 28 19 9 7 11 12 14 17 18 20 21 20 21 22 23 23 24 24 25 27 27 27 26 27 29 30 32 35 33 33 33 32 32 32 33 31 30 30 29 30 32 33 32 31 32 32 32 32 31 33 23 20 36 32 16 24 32 27 30 29 22 20 21 27 27 16 16 24 28 21 21
39 39 37 37 37 36 35 34 33 32 31 31 31 32 32 31 29 21 13 12 11 14 16 16 20 23 25 26 26 25 26 25 26 27 27 28 29 29 29 28 29 31 31 34 35 35 36 37 36 35 35 35 34 32 32 32 33 35 34 33 32 32 30 28 28 27 20 14 21 36 33 21 17 19 23 29 27 24 27 30 29 19 14 20 28 25 21 24
40 40 39 39 38 38 38 36 35 34 33 32 31 31 30 30 28 16 11 17 20 20 22 21 23 26 27 28 29 28 28 28 28 28 29 30 31 32 31 30 30 31 33 36 37 37 37 38 39 39 37 37 36 35 35 35 36 36 34 33 29 22 19 17 16 13 6 8 20 27 24 21 20 22 31 33 31 34 36 29 19 15 20 29 27 22 23 26
39 40 40 39 39 39 39 38 37 35 34 34 31 32 30 25 27 28 22 19 14 12 17 21 25 26 24 26 28 27 28 29 29 28 30 31 33 36 34 33 32 29 29 34 35 36 39 40 39 38 38 38 37 36 36 37 38 38 36 31 19 8 7 6 3 3 6 11 23 24 15 18 35 47 47 42 38 34 28 24 21 25 31 29 23 22 26 28
41 42 41 40 40 40 39 38 38 36 35 34 31 33 29 19 24 36 34 25 16 12 14 16 18 20 20 25 28 27 28 30 29 28 30 33 36 38 36 36 37 32 30 32 30 27 30 36 37 37 37 37 38 37 36 36 35 34 31 24 13 3 2 4 3 3 8 14 24 23 14 18 37 49 43 33 28 22 26 35 35 35 32 24 24 26 28 30
44 45 43 42 41 39 39 38 37 37 35 34 33 31 28 26 29 32 32 34 32 29 28 24 20 22 25 29 29 29 29 30 30 30 32 35 37 39 39 39 38 38 38 36 31 25 22 28 34 33 31 32 32 30 28 30 30 29 26 21 18 14 8 6 5 3 7 16 21 12 9 16 26 36 35 26 25 30 39 44 36 32 30 26 29 29 30 34
43 45 45 44 42 38 37 37 37 36 34 34 34 32 36 42 41 37 38 41 38 37 38 35 32 32 33 34 33 32 32 31 33 33 34 38 40 42 42 40 38 39 39 34 31 28 27 34 41 36 34 34 31 28 27 26 26 27 25 23 25 27 24 15 11 14 11 13 17 14 19 36 45 52 53 42 42 44 39 36 31 31 32 29 30 31 33 35
46 46 45 46 44 38 36 36 36 35 35 35 34 40 51 55 50 46 47 43 39 40 39 37 37 37 37 38 38 37 35 35 36 35 35 39 42 46 47 43 40 40 40 37 34 28 25 33 40 34 33 34 29 29 32 29 26 24 26 30 31 29 26 18 14 19 11 6 18 20 26 51 57 52 50 42 41 40 34 36 36 33 33 32 33 36 37 36
50 49 48 47 44 41 39 37 35 35 35 35 39 49 60 60 56 55 52 45 41 37 33 34 36 36 35 36 38 39 36 36 39 38 38 39 41 47 47 44 43 42 40 40 39 37 32 34 39 33 26 25 25 26 31 33 31 28 30 32 28 21 20 17 7 6 4 3 15 24 32 48 46 34 35 37 39 44 43 40 37 33 34 37 41 42 39 36
50 51 51 50 46 43 42 39 37 36 33 35 45 56 60 58 57 56 52 49 44 38 36 38 38 36 35 36 36 34 32 35 39 39 40 40 41 46 44 39 40 39 36 36 38 41 37 34 39 39 31 27 29 31 31 35 34 36 38 34 25 16 12 16 10 3 7 2 6 26 38 47 49 42 42 47 50 51 45 38 37 35 37 43 46 45 40 37
49 52 54 54 49 45 44 43 41 38 35 41 51 57 58 58 57 54 50 49 46 42 42 43 41 38 37 38 37 33 32 35 39 39 40 40 41 45 43 38 37 35 32 32 35 40 40 31 29 37 36 32 35 38 38 42 41 40 39 35 32 24 15 19 18 9 7 4 5 20 25 38 58 53 46 52 54 50 44 42 43 41 43 49 49 47 42 37
51 55 57 57 52 47 46 45 43 41 44 51 57 58 58 57 56 54 53 51 49 46 45 45 43 40 41 42 40 38 37 38 40 40 40 42 43 45 44 41 40 38 36 33 32 36 41 36 30 34 37 35 40 45 47 50 49 45 43 39 36 32 24 21 21 21 15 4 3 6 10 41 67 53 47 56 53 51 51 49 50 48 50 54 50 47 43 40
51 55 58 57 53 51 48 43 43 44 48 54 56 57 57 56 56 56 53 51 50 49 47 46 46 46 47 46 45 44 41 40 42 42 43 47 48 47 47 45 43 42 39 35 34 35 39 40 37 39 42 43 49 53 52 51 48 45 45 42 41 39 31 17 13 26 30 18 14 7 6 47 75 61 60 65 56 57 61 56 57 56 55 53 47 45 47 48
51 57 59 57 53 52 50 47 46 45 48 53 54 53 53 54 56 56 54 52 51 49 49 49 51 50 49 49 48 46 43 43 46 46 47 50 50 50 50 48 47 46 41 36 35 36 37 38 39 42 46 47 49 52 50 45 41 37 36 39 39 39 38 26 15 23 29 29 31 14 4 47 84 75 71 72 66 67 68 64 63 58 53 50 47 50 54 55
53 57 59 57 55 55 51 49 47 48 52 54 52 50 50 51 53 54 55 54 52 51 51 52 54 52 50 50 48 47 47 47 49 51 50 51 54 54 52 50 50 48 43 37 34 33 33 35 35 36 41 47 51 53 49 41 34 33 36 40 38 39 44 41 36 34 25 26 29 8 3 47 84 79 72 73 70 68 66 64 60 55 54 55 56 59 59 57
53 55 57 57 58 57 56 55 53 55 57 56 52 50 50 51 52 53 55 54 53 53 53 54 54 50 49 49 49 50 49 46 47 51 49 50 54 54 51 51 51 50 47 44 40 35 31 33 31 22 19 28 37 40 38 35 32 34 40 40 39 43 44 42 47 40 27 33 34 11 10 53 80 76 71 71 69 68 67 65 62 61 63 64 64 63 62 60
53 53 55 57 58 58 61 61 59 58 58 57 57 55 52 52 53 53 54 54 54 55 54 54 52 50 50 48 47 50 50 48 48 48 46 49 53 53 51 49 48 48 48 46 44 39 34 34 34 24 13 14 20 24 26 27 27 31 40 41 41 45 45 45 47 37 27 35 35 23 32 66 79 74 71 72 72 72 72 69 69 69 68 67 66 65 64 63
54 53 52 54 56 57 61 63 58 56 57 56 55 55 54 56 57 55 54 55 55 56 57 57 54 51 49 47 47 50 53 53 51 49 52 54 52 51 50 46 44 44 44 43 42 40 37 38 41 41 37 35 38 42 42 37 33 38 45 46 46 47 48 49 47 44 39 27 25 43 63 69 71 74 76 77 75 74 74 73 71 70 69 69 68 66 65 62
55 58 57 55 52 50 56 61 60 59 59 56 54 56 58 58 57 56 57 57 56 56 56 56 54 52 51 51 52 55 57 54 51 53 58 59 56 53 50 46 42 40 40 39 37 39 41 41 42 47 50 51 52 56 56 52 51 54 54 53 52 48 46 49 52 58 52 24 23 63 74 55 59 76 82 81 75 72 74 73 71 70 70 70 68 67 65 61
55 60 63 61 56 52 55 61 63 63 62 59 58 58 58 57 56 57 58 57 57 56 55 55 56 56 57 57 55 55 53 47 47 54 57 57 57 57 54 50 47 45 43 38 36 39 44 44 46 50 53 55 57 58 61 60 58 60 57 56 58 54 50 54 59 66 62 44 47 70 64 47 59 79 84 82 76 72 73 73 73 73 72 71 69 67 65 61
54 59 62 63 64 64 63 65 65 62 60 60 61 61 59 59 59 59 58 57 57 57 55 57 58 57 57 58 56 54 49 44 47 54 55 55 55 54 52 51 50 50 47 41 37 37 42 46 48 49 52 54 56 59 61 60 58 60 59 58 63 63 59 59 64 70 72 69 71 70 59 58 72 83 84 81 76 74 75 75 75 73 71 70 68 68 67 63
54 56 57 60 66 67 66 66 65 62 61 59 59 60 60 61 61 59 58 58 59 58 57 58 58 57 57 56 52 52 52 52 54 53 50 51 51 47 48 49 48 47 45 42 40 38 42 46 45 45 47 48 54 60 58 56 57 57 55 59 67 69 62 60 69 76 74 69 69 65 60 68 82 86 82 77 77 78 76 74 73 70 69 69 68 69 67 63
57 57 53 54 60 63 64 65 65 65 66 64 63 64 64 64 63 62 62 62 60 59 59 60 59 57 57 55 52 54 56 55 54 49 45 47 48 46 47 47 45 44 43 43 42 41 42 44 45 43 39 43 53 55 49 51 52 47 50 62 72 71 64 65 74 76 68 61 60 59 61 73 86 84 75 73 76 74 72 72 71 69 70 69 69 69 64 59
58 59 57 55 57 59 61 63 62 63 66 68 69 70 69 68 65 62 61 62 61 60 59 59 59 58 59 59 58 56 53 51 51 47 43 44 47 49 50 49 48 48 47 46 44 43 43 43 45 41 36 41 51 50 46 40 29 30 50 67 71 70 68 71 77 74 66 60 58 61 71 82 85 79 74 74 74 71 71 73 71 70 71 69 69 67 60 55
Wind_Direction
278 284 290 295 299 301 302 304 307 310 313 315 319 321 323 327 329 331 333 335 338 340 343 345 344 346 349 355 2 7 12 13 19 23 22 23 23 21 20 16 15 17 16 13 10 6 1 354 339 329 328 329 327 322 317 312 306 299 295 292 291 291 292 293 293 290 292 294 292 289 285 286 287 287 289 289 292 295 295 297 301 304 304 304 303 301 300 298
274 279 285 290 293 297 299 301 303 306 310 313 315 317 319 321 323 325 325 326 328 329 331 334 335 335 335 338 343 346 354 358 1 9 12 15 16 16 18 16 14 13 13 11 10 7 1 358 357 353 347 342 335 326 319 313 305 299 293 292 292 293 295 296 295 294 296 297 295 292 288 288 288 287 287 288 292 293 293 299 302 300 300 299 297 295 295 293
270 273 277 281 286 290 293 296 299 303 306 310 313 313 315 316 318 320 319 319 318 319 319 320 322 324 325 325 327 329 335 339 338 348 355 359 2 2 4 7 8 8 8 6 5 4 359 355 355 354 352 346 340 331 322 318 310 305 299 298 298 297 298 297 296 296 297 297 295 293 291 290 291 289 287 290 292 290 293 301 298 295 296 293 291 291 290 290
266 267 270 273 278 282 286 290 294 297 301 306 309 310 311 311 313 314 315 313 311 310 308 309 309 310 314 312 315 316 318 324 322 329 337 340 343 344 345 349 351 355 358 356 356 356 351 349 350 348 347 344 339 332 325 319 313 307 303 301 301 301 300 297 297 297 297 297 295 294 293 293 292 289 290 291 289 291 298 298 291 289 290 288 288 287 287 290
261 264 267 269 271 276 280 285 289 294 297 300 304 306 307 307 309 311 311 310 307 305 301 299 299 298 300 301 304 305 309 318 315 316 322 321 323 326 329 332 332 337 341 341 344 344 341 342 342 336 336 335 330 328 323 316 312 306 304 303 301 301 300 297 296 297 297 296 294 294 293 294 292 291 292 290 291 301 302 291 286 286 285 284 286 285 288 291
258 261 264 267 269 272 276 281 286 290 294 296 299 301 302 303 304 306 307 306 304 301 297 293 291 291 292 292 296 297 302 309 310 311 311 309 310 312 315 319 320 321 325 329 330 330 332 336 335 328 325 320 315 318 316 311 307 304 303 301 300 299 297 295 295 297 297 295 295 295 295 296 295 293 293 294 305 310 298 288 287 287 286 284 284 284 288 289
258 260 262 265 268 270 273 278 282 287 291 293 295 297 298 300 300 301 302 303 301 299 295 290 287 287 286 287 289 293 298 302 305 305 303 302 303 304 306 310 314 314 316 321 323 323 324 326 328 324 316 309 304 306 305 303 299 298 297 294 296 296 294 293 295 297 296 295 295 295 295 296 294 294 296 306 320 305 293 290 286 284 285 284 284 287 288 288
259 260 261 263 266 269 272 275 279 283 287 289 292 294 295 297 297 298 297 297 296 296 294 289 286 283 282 285 286 291 297 299 302 302 301 300 300 302 303 305 309 311 313 317 319 320 320 319 320 319 315 308 302 300 300 300 298 293 287 288 291 291 291 291 291 294 293 294 295 295 295 294 292 294 301 314 304 288 286 286 283 283 284 285 288 289 290 290
259 260 261 262 264 267 270 274 277 280 283 287 288 290 293 295 295 295 295 292 290 290 290 288 284 281 280 281 283 290 297 302 305 305 304 303 302 300 301 303 306 308 311 315 315 315 315 314 313 313 314 310 304 301 300 301 301 296 288 288 289 288 288 288 289 290 291 293 294 295 296 293 292 295 304 308 288 285 287 286 287 287 287 288 289 290 290 290
261 262 263 264 265 266 268 271 274 277 281 284 286 288 291 292 293 293 292 288 285 284 284 284 282 280 278 276 282 289 293 302 307 307 308 307 303 300 300 301 304 308 311 312 313 312 311 310 310 308 307 307 304 302 302 302 300 298 294 292 291 288 287 287 287 286 289 292 292 295 295 293 292 293 298 298 293 293 292 291 293 292 292 291 289 289 288 288
263 264 264 266 266 267 268 269 271 273 276 280 284 286 288 291 291 290 290 287 284 281 279 279 277 276 274 274 279 284 290 298 302 304 308 307 303 300 299 300 304 309 310 310 310 310 308 306 305 304 302 301 301 303 304 301 298 298 298 297 294 289 288 289 287 284 286 289 291 294 293 291 290 292 294 293 295 296 292 293 295 295 296 294 293 292 290 291
264 265 265 266 267 267 267 268 269 271 273 276 279 282 284 287 289 288 286 284 282 279 277 275 273 271 269 268 273 281 287 293 296 301 304 303 301 300 299 301 307 308 307 307 306 306 305 303 302 299 296 294 296 302 302 300 298 298 298 298 296 292 290 291 289 285 284 286 290 293 292 291 289 293 293 289 292 293 291 293 295 296 298 297 297 296 296 295
265 265 266 266 267 267 267 268 268 268 270 273 276 279 280 282 286 287 285 283 280 277 275 273 271 268 266 267 270 276 282 286 290 296 298 298 299 300 300 302 305 305 304 303 302 303 301 299 298 295 293 290 290 292 295 298 298 298 297 297 296 293 292 292 291 289 288 288 290 291 290 293 299 297 289 285 288 290 290 293 295 297 298 298 298 296 296 296
265 265 266 267 267 268 268 269 268 268 268 270 273 276 278 279 280 282 283 282 279 276 274 272 270 267 266 266 268 272 278 282 284 290 293 294 298 299 299 301 303 302 301 301 299 298 297 296 294 292 290 288 286 286 290 294 295 298 297 295 296 294 295 296 294 294 293 290 290 286 282 292 306 302 290 288 288 289 291 292 295 298 299 298 297 296 296 295
267 267 268 268 268 269 269 269 269 269 269 269 271 273 276 276 277 279 280 280 280 278 275 272 271 268 266 266 267 269 270 274 279 283 283 289 296 296 297 299 299 298 298 297 296 295 294 292 289 288 287 286 284 283 285 289 292 295 296 297 297 296 296 297 296 295 293 292 289 282 279 289 303 304 297 293 289 291 292 292 295 298 298 297 298 298 296 295
269 270 270 270 271 271 271 272 272 272 271 271 270 272 274 274 275 276 276 278 278 278 277 275 274 271 269 266 264 263 265 270 273 273 278 287 291 291 295 296 295 295 294 293 293 292 291 289 287 286 284 283 281 280 283 285 288 292 295 297 298 298 298 297 296 294 294 293 290 284 280 285 296 302 298 294 291 291 292 295 298 298 297 299 299 295 291 291
269 270 271 272 273 273 274 275 275 275 275 274 272 272 273 274 274 274 274 276 276 276 277 276 276 273 271 268 265 262 265 268 267 270 278 284 285 288 291 292 292 292 292 291 290 289 289 287 285 283 282 279 277 277 279 281 286 292 295 297 299 300 299 296 296 295 294 292 291 288 282 284 293 298 295 293 292 291 294 298 298 298 301 301 295 286 282 284
268 269 270 271 272 274 274 275 276 278 278 278 277 275 273 273 273 273 273 273 274 275 275 275 275 273 271 270 267 263 263 266 268 274 278 279 282 285 286 287 289 290 290 289 288 288 287 286 285 282 278 275 274 273 273 277 284 290 294 296 299 299 298 297 298 296 293 292 291 288 284 287 293 294 293 293 292 293 296 297 298 301 302 297 287 279 277 279
267 268 269 270 272 273 273 274 276 277 278 279 279 279 278 275 274 273 273 273 273 273 274 274 272 271 270 270 271 269 268 270 272 274 276 278 280 281 283 285 287 287 287 287 287 287 285 283 282 279 278 280 279 273 271 276 281 285 290 292 296 299 297 299 301 296 293 292 290 288 288 289 291 292 293 293 291 293 295 297 299 301 298 290 284 278 276 278
265 266 268 269 271 272 273 274 275 277 278 278 279 281 281 280 278 276 275 273 273 273 273 272 272 271 270 271 273 273 272 272 273 274 276 277 279 279 280 282 283 284 286 287 286 285 283 280 278 280 286 287 279 271 272 275 277 282 286 288 293 297 297 303 303 296 294 293 291 293 290 288 289 291 295 294 289 290 294 295 295 297 295 289 285 281 278 280
265 266 267 268 269 271 272 273 275 276 278 279 280 281 282 282 282 281 279 275 274 273 272 272 271 270 271 272 272 272 272 272 272 274 276 277 278 277 278 280 282 283 286 285 282 280 278 275 279 286 288 280 271 269 271 273 275 280 283 287 292 295 298 305 301 295 295 294 293 296 292 289 291 292 295 294 291 293 292 289 292 298 295 288 285 283 278 279
264 265 266 267 268 269 271 272 274 276 277 279 281 282 282 282 283 284 284 281 276 273 272 271 270 270 271 272 272 272 271 271 271 273 274 276 276 276 278 281 281 283 284 280 276 275 273 274 282 288 281 272 269 269 271 272 274 276 281 287 290 294 300 303 299 295 296 295 296 298 295 292 294 295 296 295 295 296 281 285 300 299 292 288 286 284 280 279
263 264 264 266 267 268 269 271 272 274 277 278 280 281 282 283 284 285 285 284 281 277 274 271 270 271 271 270 270 270 270 270 271 272 273 274 275 276 277 279 280 280 279 275 271 268 268 275 282 281 275 271 269 269 272 272 272 274 281 286 288 295 301 299 297 296 295 297 298 300 298 296 297 297 297 297 298 297 280 294 302 294 292 291 286 283 280 279
263 264 264 265 266 267 269 271 272 273 274 276 278 280 281 283 284 286 287 286 283 280 277 275 272 270 269 268 267 267 268 269 270 270 271 271 273 273 274 277 276 275 275 271 268 264 265 273 277 275 273 271 271 271 273 273 273 277 281 283 287 294 299 296 296 296 296 297 298 303 304 300 301 304 302 298 296 300 299 299 296 285 293 290 282 279 280 286
264 265 265 266 266 266 268 270 271 272 273 274 275 277 279 281 283 286 288 288 285 282 279 278 277 273 268 265 263 265 266 267 268 269 270 269 270 270 271 272 271 272 271 265 262 262 265 271 274 273 271 269 269 271 273 273 274 277 280 283 288 294 299 297 296 296 298 297 297 311 315 302 300 292 290 289 292 300 304 303 295 280 289 286 274 276 291 296
267 267 267 267 267 267 268 269 270 272 273 274 275 275 275 278 280 283 286 287 284 283 283 281 278 273 269 264 263 263 263 265 267 267 267 266 265 266 267 266 266 268 266 262 260 262 266 271 272 271 267 266 267 269 272 272 273 275 279 284 287 293 299 297 295 294 296 291 291 304 303 287 283 272 280 289 293 298 303 306 301 285 292 280 256 279 300 295
269 269 269 269 270 270 268 269 269 270 271 273 274 275 275 277 278 280 286 288 283 284 285 277 271 269 268 267 264 259 258 264 267 264 263 263 262 263 263 264 265 265 263 260 256 260 270 273 271 269 265 264 265 269 273 272 271 273 278 282 286 294 298 296 294 292 291 289 289 294 285 277 280 278 285 293 293 296 300 305 303 300 302 267 245 289 302 284
269 269 269 269 269 269 269 270 269 269 270 271 272 274 276 277 278 279 280 281 278 287 283 261 260 267 267 266 263 256 257 265 266 263 264 263 263 263 262 265 265 264 262 257 255 265 273 271 268 267 264 264 267 271 271 268 268 270 276 281 286 293 294 292 292 289 291 293 288 289 282 269 277 280 289 294 286 292 299 297 302 307 300 256 263 298 299 278
268 269 269 269 268 268 268 268 268 268 268 269 270 272 272 275 278 276 268 251 255 270 261 250 254 264 269 268 266 262 262 264 263 265 267 265 265 264 262 263 262 261 260 259 260 266 268 266 265 263 262 266 269 269 268 266 267 270 276 282 286 291 291 290 290 287 290 287 276 285 278 251 276 280 280 285 280 285 295 296 304 304 281 263 288 301 292 284
268 268 268 268 268 268 267 266 266 266 266 267 268 268 269 271 269 262 247 240 251 259 252 247 251 259 265 267 267 267 264 261 260 262 264 263 263 263 261 261 260 260 260 260 263 265 265 265 263 261 263 266 267 266 268 268 269 272 277 281 285 289 289 289 285 284 290 274 271 285 275 249 268 280 274 280 282 286 294 300 303 288 263 288 300 297 288 292
269 269 268 268 267 267 267 266 264 264 264 263 264 265 266 266 259 241 231 251 258 259 251 248 252 257 263 265 266 265 262 260 259 259 259 259 259 257 256 257 257 257 257 258 262 265 265 264 263 264 265 266 266 267 268 269 270 274 275 278 284 290 293 290 279 272 265 266 281 288 276 244 234 260 276 279 283 290 296 301 293 271 285 301 299 290 290 298
269 269 270 270 269 267 265 265 264 263 261 259 260 260 258 257 247 234 234 249 258 256 247 248 255 256 259 260 259 260 258 258 259 258 258 257 255 255 255 257 256 254 255 258 263 265 265 265 266 266 266 266 265 265 266 267 268 270 270 271 276 296 313 288 246 239 230 258 281 282 274 242 246 265 275 274 279 290 298 301 291 290 299 301 293 290 295 304
269 269 269 268 269 269 267 265 263 260 259 256 255 253 248 244 244 239 236 239 241 249 251 251 253 251 250 251 253 257 257 258 260 258 256 254 254 255 253 253 253 250 253 259 262 264 267 268 265 264 265 264 262 261 263 267 268 269 267 261 250 181 40 278 245 283 261 268 278 273 269 260 264 276 280 275 281 291 297 298 297 297 300 297 292 296 302 310
269 268 267 266 266 267 267 265 261 258 257 252 250 246 235 232 245 246 243 245 248 254 257 256 253 252 251 250 251 255 256 259 260 256 254 253 252 254 252 250 250 249 251 254 256 258 262 266 265 263 263 263 262 262 265 267 266 265 263 256 244 226 217 239 246 252 274 290 286 260 237 256 268 281 284 284 287 287 293 297 295 296 298 296 294 298 306 313
269 269 268 267 265 264 264 262 260 256 251 248 243 235 229 235 244 247 250 252 252 254 255 256 256 253 252 252 252 255 256 257 257 254 252 253 255 258 258 254 250 249 247 245 249 254 251 259 265 263 258 260 261 263 266 261 254 255 254 244 242 243 240 239 254 262 275 308 287 244 242 263 273 280 280 282 285 286 293 294 290 297 297 294 294 299 308 314
271 270 270 269 267 265 262 259 257 253 247 244 234 230 238 244 248 251 254 256 255 255 254 253 252 250 250 252 251 252 251 251 253 252 251 255 258 260 259 257 255 250 247 244 246 250 249 259 267 264 258 258 258 262 263 254 246 248 247 243 246 251 246 235 252 268 272 298 275 259 263 274 281 283 280 282 285 286 291 291 292 298 295 294 299 303 308 312
271 271 271 270 268 264 260 257 254 249 243 236 229 236 246 251 252 253 255 256 256 257 254 248 249 249 248 251 252 252 249 247 250 250 250 255 259 260 260 260 258 254 254 253 250 251 252 259 266 265 259 255 254 257 254 248 246 243 245 250 252 251 240 229 237 285 262 247 271 269 272 278 280 280 281 284 286 287 290 292 293 292 291 298 303 304 305 308
271 272 270 268 266 263 260 256 252 248 242 233 234 244 249 251 252 253 252 253 255 255 252 249 252 253 252 254 256 255 249 245 247 248 250 253 257 263 263 262 263 262 262 256 248 251 251 254 263 263 258 257 259 255 247 246 246 242 247 250 244 233 218 215 207 241 257 190 277 276 276 276 272 267 274 282 286 291 293 292 291 288 292 301 303 303 304 305
269 270 268 266 265 262 259 257 252 245 236 233 238 245 247 248 250 251 252 254 255 254 252 252 253 253 254 255 255 255 251 249 251 251 251 252 256 263 265 264 265 267 266 255 247 250 247 242 253 257 257 260 257 249 243 246 244 238 241 241 236 235 224 220 216 212 241 192 253 279 280 277 273 271 277 284 288 292 292 290 290 289 293 300 303 303 302 304
266 266 267 267 264 261 260 258 251 239 234 238 242 245 248 251 253 255 256 256 256 254 253 255 254 251 254 255 254 255 254 253 254 251 250 253 257 263 266 265 266 268 268 258 246 245 240 234 241 250 253 251 249 252 254 254 249 239 234 232 233 232 223 231 236 228 230 211 237 271 271 273 277 280 284 286 290 290 289 289 288 288 294 300 302 302 301 304
268 264 265 269 266 263 260 253 247 241 238 243 247 248 251 255 257 259 258 257 256 256 256 257 257 254 256 256 255 256 254 252 254 251 250 254 256 260 265 268 269 269 266 254 244 241 235 232 235 239 244 248 254 261 260 255 251 247 243 244 246 242 229 225 246 238 232 224 230 224 247 270 274 279 283 285 286 287 288 289 288 289 295 299 300 300 301 305
269 264 268 272 268 265 261 255 253 250 246 249 252 252 253 256 258 258 258 257 256 256 257 258 258 256 256 256 256 256 254 252 254 253 251 254 258 262 268 272 271 268 264 257 255 254 242 234 233 235 242 252 260 262 257 252 251 248 248 249 251 249 236 224 230 243 236 228 237 239 243 269 274 278 281 282 283 285 287 288 289 292 296 298 299 300 302 305
266 267 270 270 267 265 259 253 252 250 251 257 258 255 255 256 257 259 259 257 255 255 256 257 257 255 254 255 255 255 255 254 255 255 254 258 263 267 270 271 268 265 261 256 254 251 238 227 229 237 244 250 255 257 258 258 253 245 247 246 243 246 245 240 241 245 246 234 234 222 219 266 275 279 278 279 282 285 287 289 290 293 295 297 299 299 302 304
270 269 268 267 265 263 256 251 252 252 256 260 256 253 253 253 254 257 257 256 255 256 256 257 257 255 256 258 257 257 256 253 255 258 258 260 265 269 269 266 264 261 258 257 255 250 239 227 225 233 248 251 252 255 257 254 249 247 253 253 249 250 250 246 242 242 251 246 233 199 236 262 272 277 276 280 284 284 287 288 289 292 294 296 298 298 301 302
271 264 258 259 258 255 256 259 259 258 260 260 257 257 256 254 255 257 257 256 256 257 256 256 256 257 258 258 257 257 256 254 256 260 260 262 265 267 266 263 262 260 260 260 257 253 248 239 231 224 222 236 244 247 248 250 252 254 257 259 259 257 251 244 240 237 244 245 230 216 245 260 269 275 275 278 280 281 284 285 287 290 293 295 296 297 299 301
264 256 248 249 248 246 253 260 258 255 257 257 254 255 255 254 256 257 255 254 255 256 256 255 255 255 256 255 255 257 258 257 255 255 258 261 262 263 264 262 261 260 259 256 253 251 249 245 240 236 235 238 244 250 255 260 264 263 264 266 266 264 257 246 239 238 239 234 224 240 251 258 266 274 276 275 276 278 282 284 286 289 291 293 295 297 299 302
258 256 253 251 246 241 247 253 253 251 253 251 249 252 254 254 255 255 254 255 255 256 255 255 254 253 254 255 254 257 259 256 252 252 257 260 259 260 262 261 260 260 259 256 252 247 242 239 241 242 243 245 249 254 259 262 264 263 265 266 265 264 258 243 237 245 247 228 232 253 256 256 264 272 277 277 276 279 282 284 286 288 290 293 296 298 300 303
254 256 258 259 255 248 249 256 259 258 256 253 250 252 252 251 252 254 257 259 258 256 254 255 256 257 258 259 256 254 254 251 249 253 258 260 260 259 258 258 260 260 260 259 253 245 238 237 242 244 245 248 251 255 258 258 260 260 261 263 263 262 258 248 248 255 253 240 245 257 259 260 266 272 276 279 280 281 282 284 286 288 291 294 297 299 299 301
254 255 257 258 258 257 259 263 266 264 261 257 252 250 251 251 254 258 260 258 257 257 257 257 261 265 265 263 255 248 247 251 253 257 263 265 262 259 258 261 262 261 259 257 253 247 240 239 244 246 248 251 253 256 258 256 255 256 256 260 262 260 258 256 259 262 259 253 255 260 262 263 268 271 273 276 279 279 280 282 286 290 293 294 296 297 297 299
252 255 257 258 257 259 260 260 259 257 258 255 248 249 254 255 256 259 258 256 256 259 259 261 267 271 269 263 254 249 256 263 263 267 272 267 261 261 263 264 266 264 259 256 253 248 243 244 248 250 252 255 255 256 257 254 253 254 255 258 260 259 257 257 259 261 259 257 260 263 263 263 268 272 272 274 278 278 278 283 288 291 292 293 294 295 297 299
249 252 257 260 260 259 258 257 254 251 251 250 248 251 255 255 260 263 260 259 261 262 264 268 272 273 270 264 260 262 270 272 270 276 284 276 270 273 273 270 271 266 259 257 254 247 244 246 248 251 254 255 256 257 258 256 254 254 254 254 256 256 255 255 257 258 258 259 263 264 262 264 271 275 275 276 279 279 280 285 290 291 293 293 294 295 298 297
248 249 252 257 262 263 260 258 253 247 247 252 255 257 257 259 266 265 258 257 263 264 266 270 272 271 266 264 267 272 278 281 280 284 288 282 276 275 271 270 270 266 261 260 257 251 247 247 248 248 249 253 256 259 258 255 252 247 248 250 253 254 255 256 258 260 260 260 261 262 264 270 277 279 278 278 279 279 282 287 291 292 293 294 294 296 297 294
Height
3197 3197 3197 3197 3197 3197 3197 3196 3196 3196 3196 3196 3196 3195 3195 3194 3194 3193 3193 3193 3192 3192 3191 3191 3190 3190 3190 3189 3189 3188 3188 3187 3187 3187 3186 3186 3185 3185 3184 3184 3183 3182 3181 3180 3179 3178 3178 3177 3177 3176 3175 3175 3174 3174 3174 3174 3173 3173 3173 3172 3172 3172 3171 3171 3171 3170 3169 3169 3169 3169 3168 3168 3168 3168 3167 3166 3165 3165 3164 3164 3164 3164 3163 3163 3163 3162 3162 3162
3197 3196 3196 3196 3196 3196 3196 3196 3196 3196 3196 3195 3195 3195 3194 3194 3193 3193 3192 3192 3192 3191 3191 3190 3190 3190 3189 3189 3188 3188 3188 3187 3187 3187 3186 3186 3185 3185 3185 3184 3183 3182 3182 3181 3180 3179 3178 3177 3176 3176 3175 3174 3174 3174 3173 3173 3173 3172 3172 3171 3171 3171 3170 3170 3169 3169 3168 3168 3167 3167 3167 3166 3166 3166 3165 3164 3164 3163 3162 3162 3162 3161 3161 3161 3160 3160 3160 3159
3196 3196 3196 3195 3195 3195 3195 3195 3195 3195 3194 3194 3194 3194 3194 3193 3193 3192 3192 3191 3191 3191 3190 3190 3189 3189 3188 3188 3188 3187 3187 3187 3187 3186 3186 3185 3185 3185 3184 3184 3183 3183 3182 3182 3181 3180 3179 3178 3177 3176 3175 3174 3174 3173 3173 3172 3172 3171 3171 3170 3170 3170 3169 3169 3168 3168 3167 3167 3166 3166 3165 3165 3164 3163 3163 3162 3162 3161 3161 3161 3160 3159 3159 3159 3158 3158 3157 3157
3195 3195 3194 3194 3194 3194 3194 3193 3193 3193 3193 3193 3193 3193 3193 3192 3192 3192 3191 3191 3190 3190 3189 3189 3189 3188 3188 3187 3187 3187 3187 3186 3186 3186 3185 3185 3185 3184 3184 3184 3183 3183 3182 3182 3181 3180 3180 3178 3177 3176 3175 3174 3174 3173 3172 3172 3171 3171 3170 3170 3169 3169 3168 3168 3167 3167 3167 3166 3165 3164 3164 3163 3163 3161 3160 3160 3159 3158 3159 3159 3157 3157 3157 3156 3156 3155 3155 3154
3194 3194 3193 3193 3193 3193 3193 3192 3192 3192 3192 3192 3192 3192 3191 3191 3191 3190 3190 3190 3189 3189 3188 3188 3187 3187 3187 3186 3186 3186 3186 3185 3185 3185 3184 3184 3184 3184 3183 3183 3183 3182 3182 3181 3181 3180 3179 3178 3177 3176 3175 3174 3174 3173 3172 3171 3170 3170 3169 3169 3168 3168 3167 3167 3166 3166 3165 3165 3164 3163 3162 3162 3161 3159 3158 3157 3156 3156 3157 3156 3154 3154 3154 3153 3153 3153 3152 3152
3192 3193 3193 3192 3192 3192 3191 3191 3191 3190 3190 3190 3190 3190 3190 3190 3190 3189 3189 3188 3188 3187 3187 3186 3186 3186 3185 3185 3185 3184 3184 3184 3184 3184 3183 3183 3183 3183 3182 3182 3182 3181 3181 3180 3180 3179 3178 3177 3177 3176 3175 3174 3173 3172 3172 3171 3170 3169 3168 3168 3167 3167 3166 3166 3165 3165 3164 3163 3163 3162 3160 3160 3159 3157 3156 3155 3154 3154 3153 3153 3152 3151 3151 3151 3150 3150 3150 3149
3191 3191 3191 3191 3191 3191 3191 3190 3190 3189 3189 3189 3189 3189 3189 3189 3188 3188 3188 3187 3187 3186 3186 3185 3185 3185 3184 3184 3183 3183 3183 3183 3183 3182 3182 3182 3182 3181 3181 3181 3180 3180 3179 3179 3179 3178 3177 3176 3176 3175 3174 3173 3172 3171 3171 3170 3169 3168 3168 3167 3166 3166 3165 3165 3164 3163 3162 3162 3161 3160 3159 3158 3157 3155 3154 3153 3153 3151 3150 3150 3149 3148 3148 3148 3148 3147 3147 3147
3190 3190 3190 3190 3190 3190 3190 3189 3189 3188 3188 3188 3188 3188 3187 3187 3187 3186 3186 3186 3185 3185 3185 3184 3184 3183 3183 3183 3182 3182 3182 3182 3181 3181 3181 3181 3180 3180 3180 3179 3179 3178 3178 3178 3177 3176 3176 3175 3174 3174 3173 3172 3171 3170 3169 3169 3168 3167 3167 3166 3165 3165 3164 3164 3163 3162 3161 3160 3159 3158 3158 3157 3155 3154 3153 3152 3151 3149 3148 3147 3146 3146 3145 3145 3144 3144 3144 3143
3188 3188 3189 3189 3189 3189 3188 3188 3188 3187 3187 3187 3186 3186 3186 3186 3186 3185 3185 3184 3184 3184 3183 3183 3182 3182 3182 3181 3181 3181 3180 3180 3180 3180 3180 3179 3179 3178 3178 3178 3177 3177 3176 3176 3175 3175 3174 3174 3173 3172 3171 3170 3169 3169 3168 3167 3166 3166 3165 3165 3164 3163 3163 3162 3162 3160 3159 3158 3157 3156 3156 3155 3153 3152 3151 3150 3149 3147 3146 3145 3144 3143 3143 3142 3141 3141 3140 3140
3186 3187 3187 3187 3187 3187 3187 3187 3187 3186 3186 3185 3185 3185 3185 3184 3184 3184 3183 3183 3183 3182 3182 3181 3181 3181 3181 3180 3180 3180 3179 3179 3179 3178 3178 3178 3177 3177 3176 3176 3175 3175 3175 3174 3174 3173 3173 3172 3172 3171 3170 3169 3168 3167 3166 3165 3164 3164 3163 3163 3162 3161 3161 3160 3160 3159 3157 3157 3155 3154 3153 3152 3151 3150 3149 3148 3146 3145 3144 3143 3142 3141 3140 3139 3138 3138 3137 3136
3185 3185 3185 3185 3185 3185 3185 3185 3185 3185 3184 3184 3184 3183 3183 3183 3183 3182 3182 3181 3181 3181 3180 3180 3180 3179 3179 3179 3179 3178 3178 3178 3177 3177 3177 3176 3176 3175 3175 3174 3174 3174 3173 3172 3172 3171 3171 3170 3170 3169 3168 3167 3167 3166 3165 3163 3162 3162 3161 3160 3160 3159 3159 3158 3157 3156 3155 3154 3153 3151 3150 3149 3148 3147 3147 3145 3144 3143 3141 3140 3139 3138 3137 3136 3135 3134 3134 3133
3182 3183 3183 3183 3183 3183 3183 3183 3183 3183 3183 3183 3182 3182 3182 3181 3181 3181 3180 3180 3180 3179 3179 3178 3178 3178 3178 3178 3178 3177 3177 3177 3176 3176 3175 3174 3174 3174 3173 3173 3172 3172 3171 3171 3170 3169 3169 3168 3168 3167 3167 3166 3165 3164 3163 3162 3161 3160 3159 3158 3157 3156 3156 3156 3155 3154 3153 3152 3151 3150 3146 3144 3145 3145 3144 3143 3141 3140 3138 3137 3137 3135 3135 3133 3132 3131 3130 3129
3180 3180 3181 3181 3181 3181 3181 3181 3181 3181 3181 3181 3180 3180 3179 3179 3179 3179 3178 3178 3178 3177 3177 3177 3176 3176 3176 3176 3176 3175 3175 3175 3175 3174 3174 3173 3173 3172 3172 3171 3171 3170 3169 3169 3168 3167 3166 3166 3166 3165 3165 3164 3163 3163 3161 3160 3159 3158 3157 3156 3155 3153 3153 3153 3153 3151 3151 3150 3148 3148 3143 3138 3141 3143 3141 3140 3139 3137 3135 3134 3134 3133 3132 3130 3129 3127 3126 3126
3178 3178 3178 3178 3179 3179 3179 3179 3179 3179 3179 3179 3178 3178 3177 3178 3177 3177 3176 3176 3176 3175 3175 3175 3174 3174 3174 3174 3174 3174 3173 3173 3173 3172 3172 3172 3171 3171 3170 3169 3169 3168 3167 3167 3166 3165 3164 3164 3163 3163 3162 3162 3161 3161 3160 3158 3157 3156 3155 3154 3152 3151 3150 3150 3150 3149 3148 3147 3145 3146 3140 3134 3137 3140 3138 3138 3136 3134 3132 3131 3130 3129 3129 3127 3126 3124 3123 3122
3175 3175 3176 3176 3176 3176 3176 3177 3177 3177 3177 3176 3176 3176 3175 3175 3175 3175 3174 3174 3174 3173 3173 3173 3172 3172 3171 3172 3172 3171 3171 3171 3171 3170 3170 3170 3169 3168 3168 3167 3167 3166 3165 3164 3163 3162 3162 3161 3161 3160 3160 3159 3159 3158 3157 3156 3155 3154 3153 3151 3150 3149 3148 3146 3147 3146 3145 3144 3143 3142 3137 3132 3134 3136 3135 3134 3133 3131 3128 3127 3127 3126 3125 3124 3122 3121 3119 3118
3173 3173 3173 3173 3173 3173 3173 3174 3174 3174 3174 3174 3174 3173 3173 3172 3172 3172 3171 3172 3171 3171 3171 3170 3170 3169 3169 3169 3169 3169 3169 3169 3168 3168 3168 3167 3167 3166 3166 3165 3164 3163 3163 3162 3161 3160 3159 3159 3158 3158 3157 3157 3156 3156 3155 3154 3153 3152 3151 3149 3148 3147 3146 3144 3143 3143 3142 3141 3139 3138 3133 3129 3131 3132 3131 3130 3129 3128 3125 3124 3124 3122 3121 3120 3119 3117 3115 3114
3170 3170 3170 3171 3171 3171 3171 3171 3171 3171 3171 3171 3171 3171 3170 3169 3169 3169 3169 3169 3168 3168 3168 3167 3168 3167 3166 3166 3166 3166 3166 3166 3166 3166 3165 3165 3164 3163 3163 3162 3162 3161 3160 3159 3158 3157 3156 3156 3155 3155 3155 3154 3154 3153 3152 3151 3150 3150 3148 3147 3146 3145 3143 3141 3140 3140 3138 3137 3135 3133 3129 3125 3127 3129 3128 3126 3125 3124 3121 3120 3120 3118 3117 3116 3115 3113 3111 3110
3167 3168 3168 3168 3168 3168 3168 3167 3168 3168 3168 3168 3167 3167 3167 3166 3166 3165 3165 3165 3165 3165 3165 3164 3165 3164 3163 3163 3163 3163 3164 3164 3163 3163 3162 3162 3161 3161 3160 3159 3159 3158 3157 3156 3155 3154 3153 3153 3152 3152 3151 3151 3151 3151 3150 3148 3147 3147 3146 3145 3143 3142 3141 3139 3138 3137 3135 3133 3131 3128 3124 3121 3122 3124 3124 3123 3121 3119 3118 3117 3116 3114 3114 3112 3110 3109 3107 3106
3164 3164 3165 3165 3165 3165 3164 3164 3165 3164 3164 3164 3164 3164 3163 3163 3162 3162 3162 3162 3161 3161 3161 3161 3161 3160 3160 3160 3161 3161 3161 3161 3160 3160 3159 3159 3158 3158 3157 3156 3156 3155 3154 3153 3151 3151 3150 3149 3149 3147 3147 3148 3148 3148 3147 3145 3145 3145 3144 3143 3141 3139 3137 3137 3136 3134 3132 3128 3126 3124 3120 3117 3117 3118 3119 3119 3117 3115 3114 3113 3112 3111 3110 3109 3106 3105 3104 3103
3161 3161 3162 3162 3162 3162 3161 3161 3161 3161 3161 3161 3161 3160 3160 3159 3159 3158 3158 3158 3157 3157 3157 3157 3156 3157 3157 3158 3158 3158 3158 3158 3157 3157 3156 3156 3155 3154 3154 3153 3152 3152 3151 3150 3148 3147 3147 3146 3145 3143 3144 3146 3146 3145 3144 3143 3142 3142 3141 3140 3138 3135 3133 3134 3133 3130 3128 3123 3120 3120 3116 3112 3112 3112 3114 3115 3112 3112 3111 3109 3109 3108 3107 3105 3103 3102 3101 3100
3157 3158 3158 3159 3159 3158 3158 3158 3158 3158 3158 3157 3158 3157 3156 3156 3155 3154 3154 3153 3153 3153 3153 3153 3152 3152 3153 3154 3154 3154 3154 3153 3153 3153 3153 3152 3152 3150 3150 3150 3149 3148 3148 3147 3145 3144 3143 3142 3141 3141 3142 3143 3143 3142 3141 3140 3139 3139 3138 3137 3135 3133 3130 3131 3130 3126 3125 3119 3114 3116 3111 3106 3107 3108 3109 3109 3106 3107 3107 3106 3105 3105 3103 3101 3100 3099 3098 3097
3154 3154 3155 3155 3155 3155 3155 3155 3155 3155 3155 3155 3154 3153 3153 3152 3151 3151 3149 3147 3148 3149 3149 3148 3147 3147 3149 3150 3149 3150 3149 3148 3149 3149 3149 3148 3147 3146 3145 3146 3145 3144 3144 3143 3141 3140 3139 3138 3139 3139 3139 3139 3139 3138 3138 3137 3136 3135 3135 3133 3131 3130 3127 3126 3126 3123 3122 3116 3110 3110 3103 3098 3101 3103 3103 3104 3101 3101 3103 3102 3102 3101 3099 3097 3096 3095 3094 3094
3150 3151 3152 3151 3152 3152 3151 3151 3152 3152 3152 3152 3151 3150 3149 3148 3148 3147 3145 3141 3140 3144 3144 3143 3143 3143 3145 3145 3145 3145 3143 3143 3144 3144 3145 3144 3143 3143 3141 3141 3141 3140 3140 3138 3137 3136 3135 3135 3136 3136 3135 3135 3135 3135 3135 3133 3132 3132 3132 3130 3127 3127 3126 3122 3122 3121 3118 3114 3108 3105 3096 3088 3093 3095 3096 3098 3097 3098 3100 3099 3099 3097 3095 3094 3092 3091 3090 3091
3146 3147 3148 3148 3148 3148 3148 3148 3149 3149 3149 3148 3148 3148 3146 3145 3144 3143 3141 3136 3131 3136 3139 3138 3139 3139 3140 3140 3140 3140 3138 3139 3139 3140 3141 3139 3138 3138 3137 3138 3137 3136 3136 3134 3133 3132 3132 3133 3133 3133 3133 3132 3132 3132 3132 3130 3128 3128 3128 3127 3124 3125 3124 3120 3118 3117 3115 3113 3108 3104 3092 3078 3082 3088 3088 3093 3094 3095 3096 3094 3095 3094 3092 3091 3089 3088 3088 3087
3142 3143 3143 3144 3144 3144 3144 3144 3145 3145 3145 3145 3145 3144 3143 3142 3141 3140 3138 3131 3123 3126 3132 3132 3133 3134 3135 3134 3134 3135 3133 3133 3135 3135 3135 3135 3134 3133 3133 3134 3132 3131 3132 3131 3129 3128 3129 3131 3129 3129 3129 3128 3128 3128 3128 3127 3124 3124 3124 3124 3122 3121 3121 3118 3116 3113 3111 3110 3106 3108 3097 3073 3073 3083 3084 3087 3089 3090 3092 3090 3090 3091 3089 3088 3086 3085 3085 3084
3139 3139 3140 3140 3140 3141 3140 3140 3142 3142 3142 3142 3141 3140 3140 3139 3139 3137 3135 3127 3116 3118 3125 3127 3126 3127 3128 3129 3130 3131 3129 3128 3130 3131 3130 3131 3130 3129 3129 3129 3128 3128 3128 3127 3125 3124 3126 3127 3125 3125 3125 3125 3125 3124 3125 3124 3121 3120 3119 3121 3120 3118 3117 3115 3115 3112 3109 3106 3104 3111 3109 3080 3066 3075 3080 3081 3083 3084 3087 3087 3085 3086 3084 3084 3083 3082 3081 3080
3135 3135 3136 3136 3136 3137 3136 3136 3138 3138 3138 3138 3137 3137 3137 3135 3136 3135 3134 3125 3112 3111 3119 3120 3121 3121 3123 3124 3126 3126 3124 3124 3126 3127 3127 3127 3126 3126 3125 3124 3125 3124 3124 3124 3121 3120 3122 3122 3122 3122 3121 3121 3121 3120 3121 3121 3119 3116 3115 3117 3116 3115 3114 3112 3111 3111 3106 3103 3100 3106 3112 3089 3062 3063 3073 3075 3077 3079 3081 3083 3082 3081 3080 3079 3079 3078 3077 3076
3130 3131 3132 3132 3133 3132 3132 3133 3133 3134 3134 3134 3134 3134 3133 3132 3133 3132 3133 3124 3108 3107 3113 3115 3117 3118 3119 3121 3121 3122 3121 3121 3123 3123 3123 3124 3122 3122 3121 3121 3122 3120 3121 3120 3116 3117 3119 3117 3118 3118 3117 3117 3117 3117 3117 3118 3116 3113 3112 3113 3113 3112 3111 3109 3108 3108 3104 3100 3097 3098 3106 3094 3061 3054 3067 3069 3070 3074 3075 3078 3078 3076 3076 3075 3075 3074 3072 3072
3126 3126 3127 3128 3128 3128 3129 3129 3129 3130 3130 3130 3131 3130 3129 3130 3129 3129 3130 3119 3104 3104 3110 3111 3114 3115 3116 3118 3118 3119 3119 3119 3119 3118 3120 3120 3118 3118 3118 3118 3118 3116 3117 3115 3112 3114 3114 3113 3114 3114 3113 3113 3113 3114 3113 3114 3113 3110 3110 3109 3109 3109 3107 3107 3105 3104 3104 3096 3091 3092 3098 3092 3061 3047 3062 3064 3063 3069 3071 3073 3074 3072 3072 3072 3071 3070 3068 3067
3121 3121 3122 3123 3123 3124 3124 3125 3125 3126 3126 3126 3126 3126 3126 3126 3125 3126 3121 3107 3101 3103 3105 3106 3110 3112 3113 3114 3114 3115 3115 3115 3115 3115 3116 3115 3114 3114 3114 3115 3115 3113 3112 3110 3109 3110 3109 3109 3109 3109 3109 3109 3110 3110 3109 3110 3109 3107 3108 3105 3106 3105 3103 3104 3101 3101 3102 3089 3085 3087 3088 3089 3067 3045 3052 3058 3058 3064 3066 3068 3068 3067 3068 3068 3067 3065 3064 3063
3116 3117 3117 3118 3119 3120 3120 3120 3121 3121 3122 3122 3122 3123 3122 3121 3122 3118 3104 3096 3099 3101 3100 3103 3105 3106 3109 3109 3109 3110 3110 3110 3110 3111 3111 3110 3110 3109 3110 3111 3111 3109 3108 3106 3105 3106 3105 3104 3104 3104 3106 3106 3106 3106 3106 3106 3105 3104 3104 3103 3104 3103 3100 3100 3097 3100 3098 3083 3080 3082 3081 3084 3066 3043 3047 3053 3053 3059 3061 3062 3064 3063 3064 3064 3062 3061 3059 3058
3112 3111 3111 3113 3114 3114 3115 3115 3116 3117 3117 3118 3119 3118 3118 3118 3112 3099 3090 3094 3099 3095 3095 3100 3100 3101 3104 3104 3103 3105 3105 3105 3106 3106 3106 3106 3104 3103 3105 3106 3106 3106 3103 3101 3102 3102 3100 3099 3100 3101 3102 3102 3102 3102 3102 3101 3101 3100 3100 3102 3103 3103 3102 3099 3094 3095 3092 3081 3078 3078 3078 3074 3051 3037 3045 3049 3049 3054 3056 3057 3058 3058 3059 3058 3057 3056 3054 3054
3107 3106 3106 3107 3108 3108 3109 3110 3111 3112 3112 3113 3114 3112 3115 3112 3093 3081 3086 3094 3094 3091 3093 3096 3096 3098 3100 3098 3098 3100 3101 3101 3102 3102 3101 3100 3098 3098 3100 3100 3101 3102 3099 3098 3099 3098 3096 3094 3095 3097 3097 3097 3097 3097 3097 3095 3096 3096 3096 3099 3100 3102 3104 3097 3092 3091 3084 3077 3075 3076 3076 3060 3037 3032 3038 3040 3045 3049 3051 3053 3053 3052 3053 3053 3052 3051 3050 3049
3101 3101 3101 3101 3102 3103 3104 3105 3105 3106 3107 3108 3107 3108 3110 3098 3078 3075 3084 3087 3088 3091 3091 3092 3093 3095 3094 3093 3093 3095 3097 3097 3097 3097 3096 3094 3093 3092 3093 3094 3096 3097 3096 3097 3095 3095 3094 3088 3088 3093 3092 3091 3092 3093 3094 3092 3092 3092 3092 3095 3094 3095 3097 3090 3087 3085 3079 3074 3071 3073 3069 3047 3030 3029 3029 3033 3040 3043 3045 3047 3047 3048 3048 3048 3048 3047 3046 3045
3094 3094 3096 3096 3097 3098 3099 3099 3099 3100 3101 3100 3101 3102 3095 3079 3071 3075 3078 3080 3085 3087 3086 3088 3090 3089 3088 3087 3088 3091 3093 3093 3091 3092 3091 3088 3087 3085 3084 3087 3090 3092 3093 3093 3091 3091 3089 3081 3081 3087 3086 3087 3088 3089 3090 3089 3088 3088 3089 3090 3086 3086 3088 3086 3084 3080 3079 3078 3068 3062 3052 3032 3025 3025 3023 3030 3034 3034 3040 3040 3040 3043 3043 3043 3043 3042 3042 3040
3088 3089 3090 3090 3092 3093 3092 3092 3093 3093 3093 3093 3094 3089 3076 3067 3070 3073 3072 3075 3080 3081 3082 3084 3083 3083 3082 3081 3083 3085 3087 3087 3086 3086 3085 3083 3081 3077 3077 3080 3084 3086 3086 3086 3086 3086 3083 3077 3078 3080 3080 3083 3084 3084 3085 3084 3083 3084 3083 3080 3079 3081 3083 3084 3082 3078 3081 3080 3062 3049 3038 3024 3021 3018 3014 3024 3026 3026 3033 3033 3035 3038 3037 3038 3038 3036 3037 3036
3082 3082 3082 3083 3086 3086 3084 3085 3087 3086 3086 3086 3083 3072 3062 3063 3067 3068 3069 3071 3073 3076 3080 3079 3076 3077 3076 3075 3076 3078 3082 3083 3081 3080 3080 3078 3074 3069 3071 3074 3077 3079 3081 3082 3082 3081 3080 3076 3074 3076 3076 3078 3080 3080 3079 3078 3079 3079 3076 3074 3076 3079 3081 3081 3082 3079 3080 3078 3058 3042 3035 3024 3017 3011 3008 3016 3019 3020 3025 3027 3029 3032 3031 3033 3033 3032 3033 3032
3075 3075 3073 3074 3078 3078 3077 3079 3079 3078 3080 3079 3071 3061 3057 3059 3061 3063 3066 3067 3070 3074 3074 3072 3071 3071 3071 3071 3071 3074 3077 3077 3075 3074 3074 3072 3066 3062 3066 3070 3071 3074 3077 3079 3078 3077 3077 3074 3072 3072 3071 3074 3076 3074 3073 3073 3074 3072 3070 3072 3073 3074 3076 3077 3079 3075 3073 3073 3058 3040 3033 3017 3004 3004 3006 3010 3013 3015 3019 3021 3022 3024 3026 3028 3027 3027 3027 3026
3068 3066 3063 3064 3070 3071 3071 3071 3070 3071 3073 3068 3060 3055 3052 3053 3054 3058 3062 3064 3067 3068 3066 3065 3067 3067 3066 3066 3067 3069 3071 3070 3069 3069 3067 3065 3060 3057 3061 3065 3067 3069 3072 3074 3072 3071 3072 3071 3068 3067 3066 3069 3069 3065 3065 3065 3065 3066 3066 3068 3067 3068 3071 3070 3070 3067 3063 3066 3057 3044 3033 3003 2983 2995 3005 3005 3009 3011 3013 3015 3015 3017 3020 3021 3021 3021 3021 3020
3061 3058 3053 3055 3061 3063 3063 3063 3061 3060 3060 3055 3052 3050 3049 3050 3053 3056 3059 3060 3061 3061 3060 3061 3063 3063 3061 3061 3062 3064 3064 3063 3063 3063 3061 3059 3056 3053 3056 3059 3062 3065 3066 3066 3066 3065 3067 3066 3064 3063 3063 3061 3057 3054 3055 3054 3055 3057 3058 3060 3061 3063 3066 3063 3062 3061 3059 3061 3055 3049 3034 2993 2971 2989 2998 2998 3004 3006 3007 3010 3009 3012 3015 3016 3017 3015 3015 3015
3055 3049 3045 3049 3053 3056 3057 3054 3051 3050 3049 3047 3046 3045 3046 3049 3050 3052 3054 3055 3055 3054 3056 3056 3056 3056 3056 3056 3056 3057 3058 3057 3056 3056 3054 3052 3051 3049 3051 3053 3056 3058 3059 3059 3059 3059 3060 3060 3059 3059 3056 3051 3048 3048 3048 3046 3047 3048 3050 3053 3053 3055 3059 3060 3058 3053 3052 3053 3045 3043 3033 2991 2970 2987 2993 2993 2999 3000 3002 3004 3002 3005 3009 3011 3012 3011 3010 3010
3046 3040 3039 3044 3045 3047 3048 3044 3044 3045 3042 3038 3039 3040 3043 3044 3044 3045 3047 3049 3049 3049 3050 3050 3049 3049 3049 3050 3050 3052 3053 3051 3049 3047 3044 3044 3046 3045 3046 3049 3050 3050 3052 3053 3053 3054 3055 3054 3054 3053 3050 3049 3047 3044 3042 3041 3043 3045 3046 3047 3048 3050 3052 3052 3050 3044 3044 3043 3034 3037 3031 2989 2968 2987 2993 2989 2994 2995 2998 2999 2997 2999 3002 3003 3005 3005 3005 3005
3039 3035 3035 3037 3036 3038 3039 3036 3037 3037 3032 3032 3035 3037 3039 3039 3038 3039 3041 3042 3043 3043 3044 3042 3041 3042 3043 3044 3046 3046 3046 3044 3041 3039 3039 3040 3039 3039 3043 3045 3044 3044 3046 3046 3046 3049 3051 3050 3050 3049 3047 3047 3044 3039 3036 3036 3038 3040 3039 3040 3042 3043 3043 3043 3042 3039 3037 3033 3027 3035 3028 2987 2968 2985 2989 2986 2990 2992 2993 2994 2993 2995 2996 2997 2998 2997 2998 2999
3035 3033 3031 3030 3028 3028 3027 3025 3026 3025 3025 3028 3030 3030 3032 3032 3032 3033 3033 3035 3037 3037 3036 3034 3034 3036 3038 3040 3041 3040 3040 3038 3034 3034 3035 3035 3032 3033 3037 3039 3038 3038 3039 3039 3040 3044 3045 3045 3047 3048 3048 3046 3040 3034 3030 3029 3031 3032 3031 3034 3036 3037 3040 3040 3037 3036 3031 3019 3019 3028 3015 2982 2971 2981 2983 2984 2986 2986 2988 2989 2989 2990 2991 2992 2992 2992 2992 2992
3031 3026 3023 3025 3022 3017 3014 3015 3018 3018 3020 3022 3021 3023 3027 3026 3026 3028 3028 3028 3030 3030 3029 3027 3029 3031 3033 3035 3034 3033 3034 3033 3030 3030 3030 3029 3026 3027 3030 3031 3032 3033 3033 3035 3036 3037 3038 3039 3041 3043 3042 3038 3031 3024 3022 3024 3027 3027 3026 3029 3030 3032 3034 3031 3030 3031 3018 3005 3012 3016 2995 2973 2974 2981 2982 2982 2982 2981 2984 2985 2985 2986 2987 2987 2988 2987 2987 2987
3026 3019 3017 3019 3016 3010 3007 3010 3012 3011 3012 3014 3014 3016 3019 3018 3019 3021 3022 3021 3022 3022 3021 3020 3022 3025 3026 3028 3028 3026 3025 3026 3026 3026 3024 3022 3021 3021 3022 3024 3027 3028 3028 3029 3031 3032 3031 3030 3030 3031 3028 3025 3022 3018 3020 3023 3023 3021 3021 3022 3024 3024 3024 3024 3023 3014 3001 3001 3007 2998 2979 2971 2978 2980 2975 2975 2978 2979 2980 2981 2981 2982 2982 2982 2982 2982 2981 2981
3019 3011 3009 3012 3010 3005 3003 3004 3004 3003 3005 3008 3007 3008 3010 3010 3013 3014 3014 3014 3015 3016 3016 3014 3016 3018 3018 3020 3019 3016 3016 3019 3020 3018 3015 3015 3016 3017 3017 3018 3020 3021 3022 3023 3026 3026 3023 3020 3021 3021 3018 3018 3018 3017 3018 3020 3018 3016 3016 3017 3018 3017 3017 3017 3008 2994 2995 3002 2993 2976 2972 2978 2982 2974 2962 2965 2975 2977 2975 2976 2977 2977 2977 2977 2976 2975 2975 2976
3011 3004 3003 3005 3002 2997 2996 2997 2998 2997 3000 3001 3000 3001 3003 3004 3007 3007 3006 3008 3009 3010 3010 3008 3008 3009 3009 3011 3010 3007 3009 3013 3013 3010 3009 3011 3012 3011 3010 3012 3014 3015 3017 3018 3019 3018 3016 3013 3014 3013 3010 3011 3013 3011 3012 3014 3013 3012 3011 3011 3011 3010 3007 3003 2993 2986 2992 2988 2971 2966 2977 2984 2979 2965 2954 2960 2971 2972 2970 2970 2970 2970 2971 2970 2970 2969 2968 2969
3004 2999 2998 2997 2992 2988 2990 2994 2995 2993 2992 2994 2993 2992 2995 2996 2996 2998 3000 3002 3001 3001 3002 3000 2999 3001 3001 3002 3003 3001 3004 3007 3004 3002 3004 3004 3005 3006 3006 3007 3008 3009 3011 3012 3012 3013 3010 3006 3007 3007 3003 3004 3006 3003 3004 3009 3008 3005 3005 3006 3004 3000 2997 2994 2987 2981 2979 2970 2963 2970 2979 2979 2968 2953 2951 2962 2967 2965 2965 2964 2963 2964 2964 2965 2965 2962 2961 2962
2997 2994 2994 2990 2983 2983 2985 2987 2989 2986 2985 2988 2985 2984 2987 2986 2986 2991 2993 2993 2992 2993 2994 2992 2992 2996 2996 2995 2997 2996 2996 2997 2995 2996 2998 2997 2998 3001 3001 3000 3001 3002 3004 3005 3006 3007 3004 3000 3002 3004 2999 2996 2997 2995 2998 3003 3001 2998 3002 3002 2994 2988 2990 2989 2978 2968 2966 2965 2967 2973 2974 2965 2950 2942 2952 2963 2960 2958 2959 2958 2959 2959 2958 2960 2959 2956 2955 2955
2991 2991 2992 2986 2977 2977 2977 2977 2979 2977 2975 2977 2975 2976 2978 2976 2979 2985 2983 2982 2985 2986 2986 2985 2987 2991 2991 2989 2990 2988 2988 2989 2989 2991 2994 2992 2992 2994 2993 2992 2995 2996 2996 2998 2997 2998 2998 2995 2997 2999 2993 2987 2988 2989 2992 2995 2995 2995 2996 2989 2979 2978 2982 2977 2963 2957 2962 2967 2969 2969 2961 2946 2936 2942 2955 2957 2952 2952 2953 2952 2953 2951 2951 2953 2951 2949 2949 2947
2985 2984 2986 2982 2972 2970 2971 2970 2969 2967 2964 2966 2967 2967 2968 2968 2975 2980 2975 2973 2977 2979 2980 2981 2982 2984 2983 2981 2981 2982 2984 2985 2984 2986 2989 2988 2986 2987 2985 2985 2987 2988 2988 2990 2990 2990 2991 2988 2990 2992 2986 2979 2983 2986 2986 2989 2990 2984 2977 2971 2968 2972 2973 2964 2954 2954 2962 2966 2965 2959 2947 2936 2937 2945 2948 2946 2946 2946 2945 2946 2946 2943 2943 2944 2942 2941 2941 2939